loading
DOY 198 | 2024-07-16T11:55:15Z
Showing default

FLOCK 4Y 33, 55042

Orbit data source: Space-Track

FLOCK 4Y 33, 55042 is a payload satellite owned by Planet (US) in LEO that was launched on Tue, 03 Jan 2023 UTC via a Falcon 9 launch vehicle from the Air Force Eastern Test Range (AFETR). Payloads include a variety of satellites, spacecraft, and rockets equipped with specific instruments for various scientific and technological missions. These include communications satellites like Starlink; space stations such as the ISS; scientific satellites like the Hubble; Earth observation satellites from companies like Planet Labs, Umbra, and HawkEye 360; GPS; miniature CubeSats for education and research; and military/defense satellites.

Loading next visibility...
Loading greatness...
FLOCK 4Y 33 details
NORAD ID55042
COSPAR ID
2023-001AK
Orbit
LEO
Last TLE update19 hours ago
Origin
Flag of USPlanet (US)
ManufacturerPlanet
BusCubesat 3U
MotorUnknown
Mass5.7 kg wet, 5.7 kg dry
Launch date (UTC)
2023-01-03 (2 years ago)
Launch vehicle
Falcon 9
Launch site
Air Force Eastern Test Range (AFETR)
Object type
Payload
Rocket body
Debris
Radar Cross SectionMedium (>0.1 m² and <1 m²)
Predictive object data (real-time)
Latitude-46.14241°
Longitude74.69831°
Altitude497.175 km
Speed7.613 km/s
Apparent Right ascension15h 10m 34s
Apparent Declination-50° 27' 34"
Sunlit
Object is in full shadow
Predictive observer data (real-time)
Local Sidereal Time00:34:02
Azimuth235.648° WSW
Elevation-60.88°
Doppler factor1
Orbital elements
Apogee480.649 km
Perigee466.32 km
Semi-major axis6,851.621 km
Eccentricity0.0010457
Inclination97.4234°
RAAN259.503°
Arg. of periapsis69.6977°
True anomaly290.42634°
Mean anomaly290.5386°
Mean motion3.82695 °/min
BSTAR0.00066077
Period94.07 mins
Definitive object data (Epoch: 2024-07-15T17:17:07.339Z)
Latitude-0.00007°
Longitude66.17303°
Altitude477.125 km
Speed7.629 km/s
True Right ascension17h 18m 00s
True Declination0° 00' 00"
Sunlit
Object was in full shadow at TLE epoch
TLE from 19 hours ago
0 FLOCK 4Y 33
1 55042U 23001AK  24197.72022384  .00019029  00000-0  66077-3 0  9993
2 55042  97.4234 259.5030 0010457  69.6977 290.5386 15.29759415 85141
Epoch: 2024-07-15T17:17Z
No data available

FLOCK 4Y 33 Visibility forecast

Observer location: 39.9160978°, -105.1181434

FLOCK 4Y 33 is not visible in the next 10 days
Span
Click to sort rows by Start time (UTC) header in descending order
Start Az.
Max El. time (UTC)
Max El. Az.
Max El.
End time (UTC)
End Az.